Regional Weather Roundup
Issued by NWS Memphis, TN

Home | Current Version | Previous Version | Text Only | Print | Product List | Glossary On
Versions: 1 2 3 4 5 6 7 8 9 10 11 12 13 14 15 16 17 18 19 20 21 22 23 24 25 26 27 28 29 30 31 32 33 34 35 36 37 38 39 40 41 42 43 44 45 46 47 48 49 50
000
ASUS44 KMEG 282110
RWRMEG
MEMPHIS CWA HOURLY WEATHER ROUNDUP
NATIONAL WEATHER SERVICE MEMPHIS TN
400 PM CDT TUE JUL 28 2015

...WEST TENNESSEE...

CITY           SKY/WX    TMP DP  RH WIND       PRES   REMARKS
MEMPHIS INTL   MOSUNNY   96  74  48 VRB5      29.98S HX 107
NWS MEMPHIS      N/A     96 N/A N/A MISG        N/A
JACKSON        SUNNY     96  75  50 W7        29.97F HX 108
LEXINGTON      MOSUNNY   95  75  52 W6        29.96F HX 107
DYERSBURG        N/A    N/A N/A N/A MISG        N/A
PARIS          MOSUNNY   91  75  59 W3        29.97F HX 102


...EASTERN ARKANSAS...

CITY           SKY/WX    TMP DP  RH WIND       PRES   REMARKS
JONESBORO      SUNNY     92  76  59 SW14      29.95F HX 104
WEST MEMPHIS   MOSUNNY   94  80  64 CALM      29.96F HX 113
BATESVILLE     SUNNY     97  73  46 SW7       29.96F HX 107
NEWPORT        SUNNY     99  76  47 SW5       29.97F HX 113
WALNUT RIDGE   SUNNY     97  73  46 SW12      29.95S HX 107
BLYTHEVILLE    MOSUNNY   95  78  58 SW8       29.96F HX 111
SEARCY         SUNNY     97  77  52 S9        29.97F HX 112
STUTTGART      SUNNY     99  73  44 W8        29.97S HX 109
PINE BLUFF     MOSUNNY   98  71  41 S7        29.97S HX 106
MONTICELLO     PTSUNNY   94  76  55 CALM      29.97F HX 106


...NORTH MISSISSIPPI...

CITY           SKY/WX    TMP DP  RH WIND       PRES   REMARKS
TUPELO         SUNNY     96  72  45 NW7       29.97F HX 104
OLIVE BRANCH   MOSUNNY   95  75  52 SW12      29.97F HX 107
TUNICA         SUNNY     95  72  46 W6        29.98S HX 103
CLARKSDALE     SUNNY     97  75  49 SW6       29.98S HX 109
CORINTH        MOSUNNY   95  73  49 W6        29.96F HX 105
GREENWOOD      SUNNY     96  73  47 NW3       29.97F HX 105
COLUMBUS       SUNNY     97  72  44 NW12      29.96F HX 105
STARKVILLE     FAIR      95  72  46 N6        29.97F HX 103
GOLDEN TRIANGL MOSUNNY   99  72  41 NW7       29.96F HX 107


...SOUTHEAST MISSOURI...

CITY           SKY/WX    TMP DP  RH WIND       PRES   REMARKS
WEST PLAINS    MOSUNNY   92  72  51 SW9       30.01F HX  99
POPLAR BLUFF   SUNNY     93  78  61 SW8       29.94F HX 108
CAPE GIRARDEAU MOSUNNY   93  78  61 SW7       29.93F HX 108


...NORTHWEST ALABAMA...

CITY           SKY/WX    TMP DP  RH WIND       PRES   REMARKS
MUSCLE SHOALS  MOSUNNY   93  73  52 NW8       29.98F HX 102


...MIDDLE TENNESSEE...

CITY           SKY/WX    TMP DP  RH WIND       PRES   REMARKS
NASHVILLE      CLOUDY    88  75  66 E8        29.98R THUNDER HX  97
CLARKSVILLE    PTSUNNY   93  75  55 W9        29.96S HX 104


...WESTERN KENTUCKY...

CITY           SKY/WX    TMP DP  RH WIND       PRES   REMARKS
PADUCAH        SUNNY     93  77  59 SW9       29.93F HX 107
FORT CAMPBELL  MOSUNNY   93  77  59 W7        29.96S HX 106


...CENTRAL ARKANSAS...

CITY           SKY/WX    TMP DP  RH WIND       PRES   REMARKS
LITTLE ROCK    MOSUNNY   98  70  40 SE8       29.96F HX 105


SKY/WX REPORTED AS FAIR MEANS FEW OR NO CLOUDS BELOW
12 THOUSAND FEET.



USA.gov is the U.S. government's official web portal to all federal, state and local government web resources and services.